• In Russia
  • List of Countries
  • For 7 days
  • Water Temperature
  • Satellite Maps
  • Weather Map
  • Weather Widgets
  • user-avatar
    Login

    Hourly Weather San Juan

    Today, 12 December, Tuesday

    Time Temperature Precipitation Wind Pressure Humidity
    00:00 +29°C° 0.1 mm 4 mps 702 mmHg 39%
    01:00 +28°C° 0 mm 4 mps 702 mmHg 40%
    02:00 +28°C° 0 mm 3 mps 702 mmHg 41%
    03:00 +27°C° 0 mm 3 mps 702 mmHg 41%
    04:00 +27°C° 0 mm 3 mps 702 mmHg 42%
    05:00 +28°C° 0 mm 3 mps 702 mmHg 38%
    06:00 +29°C° 0 mm 3 mps 702 mmHg 35%
    07:00 +30°C° 0 mm 2 mps 702 mmHg 31%
    08:00 +32°C° 0 mm 2 mps 702 mmHg 29%
    09:00 +34°C° 0 mm 2 mps 702 mmHg 26%
    10:00 +35°C° 0 mm 2 mps 702 mmHg 24%
    11:00 +36°C° 0 mm 2 mps 701 mmHg 22%
    12:00 +37°C° 0 mm 3 mps 701 mmHg 20%
    13:00 +38°C° 0 mm 3 mps 701 mmHg 18%
    14:00 +38°C° 0 mm 3 mps 700 mmHg 18%
    15:00 +38°C° 0 mm 3 mps 700 mmHg 18%
    16:00 +38°C° 0 mm 4 mps 700 mmHg 17%
    17:00 +37°C° 0.3 mm 4 mps 700 mmHg 19%
    18:00 +36°C° 0.3 mm 4 mps 701 mmHg 21%
    19:00 +35°C° 0.3 mm 4 mps 701 mmHg 23%
    20:00 +34°C° 0.2 mm 4 mps 702 mmHg 26%
    21:00 +33°C° 0.2 mm 4 mps 702 mmHg 29%
    22:00 +32°C° 0.2 mm 4 mps 703 mmHg 31%
    23:00 +29°C° 0.2 mm 5 mps 702 mmHg 41%

    Tomorrow, 13 December, Wednesday

    Time Temperature Precipitation Wind Pressure Humidity
    00:00 +27°C° 0.2 mm 7 mps 702 mmHg 50%
    01:00 +26°C° 0.2 mm 8 mps 702 mmHg 59%
    02:00 +24°C° 0 mm 7 mps 702 mmHg 64%
    03:00 +23°C° 0 mm 7 mps 703 mmHg 68%
    04:00 +22°C° 0 mm 6 mps 703 mmHg 73%
    05:00 +23°C° 0 mm 6 mps 704 mmHg 68%
    06:00 +24°C° 0 mm 6 mps 704 mmHg 64%
    07:00 +24°C° 0 mm 6 mps 705 mmHg 59%
    08:00 +27°C° 0 mm 6 mps 705 mmHg 51%
    09:00 +29°C° 0 mm 6 mps 705 mmHg 43%
    10:00 +30°C° 0 mm 6 mps 705 mmHg 34%
    11:00 +32°C° 0 mm 6 mps 705 mmHg 32%
    12:00 +33°C° 0 mm 6 mps 704 mmHg 29%
    13:00 +34°C° 0 mm 6 mps 704 mmHg 27%
    14:00 +35°C° 0 mm 6 mps 704 mmHg 27%
    15:00 +35°C° 0 mm 6 mps 704 mmHg 26%
    16:00 +35°C° 0 mm 6 mps 704 mmHg 26%
    17:00 +34°C° 0 mm 5 mps 704 mmHg 27%
    18:00 +33°C° 0 mm 5 mps 705 mmHg 29%
    19:00 +32°C° 0 mm 4 mps 705 mmHg 30%
    20:00 +32°C° 0 mm 4 mps 706 mmHg 32%
    21:00 +30°C° 0 mm 3 mps 707 mmHg 33%
    22:00 +30°C° 0 mm 3 mps 707 mmHg 34%
    23:00 +29°C° 0 mm 2 mps 707 mmHg 36%

    Day after tomorrow, 14 December, Thursday

    Time Temperature Precipitation Wind Pressure Humidity
    00:00 +28°C° 0 mm 2 mps 707 mmHg 38%
    01:00 +28°C° 0 mm 2 mps 707 mmHg 40%
    02:00 +27°C° 0 mm 2 mps 707 mmHg 42%
    03:00 +27°C° 0 mm 1 mps 707 mmHg 44%
    04:00 +26°C° 0 mm 1 mps 707 mmHg 47%
    05:00 +27°C° 0 mm 1 mps 707 mmHg 44%
    06:00 +28°C° 0 mm 2 mps 708 mmHg 41%
    07:00 +29°C° 0 mm 2 mps 708 mmHg 38%
    08:00 +30°C° 0 mm 2 mps 708 mmHg 34%
    09:00 +31°C° 0 mm 2 mps 708 mmHg 30%
    10:00 +34°C° 0 mm 2 mps 708 mmHg 27%
    11:00 +34°C° 0 mm 2 mps 707 mmHg 25%
    12:00 +35°C° 0 mm 2 mps 706 mmHg 23%
    13:00 +36°C° 0 mm 2 mps 706 mmHg 21%
    14:00 +37°C° 0 mm 2 mps 705 mmHg 20%
    15:00 +37°C° 0 mm 2 mps 705 mmHg 19%
    16:00 +38°C° 0 mm 2 mps 704 mmHg 18%
    17:00 +37°C° 0 mm 2 mps 705 mmHg 18%
    18:00 +36°C° 0 mm 2 mps 705 mmHg 19%
    19:00 +35°C° 0 mm 2 mps 705 mmHg 19%
    20:00 +35°C° 0 mm 2 mps 706 mmHg 22%
    21:00 +34°C° 0 mm 2 mps 706 mmHg 24%
    22:00 +32°C° 0 mm 2 mps 706 mmHg 26%
    23:00 +32°C° 0 mm 2 mps 706 mmHg 30%

    15 December, Friday

    Time Temperature Precipitation Wind Pressure Humidity
    00:00 +31°C° 0 mm 2 mps 706 mmHg 35%
    01:00 +31°C° 0 mm 2 mps 705 mmHg 39%
    02:00 +30°C° 0 mm 2 mps 705 mmHg 41%
    03:00 +30°C° 0 mm 2 mps 705 mmHg 44%
    04:00 +29°C° 0 mm 1 mps 705 mmHg 46%
    05:00 +30°C° 0 mm 2 mps 705 mmHg 43%
    06:00 +31°C° 0 mm 2 mps 706 mmHg 40%
    07:00 +31°C° 0 mm 2 mps 706 mmHg 36%
    08:00 +32°C° 0 mm 2 mps 705 mmHg 34%
    09:00 +34°C° 0 mm 2 mps 705 mmHg 32%
    10:00 +35°C° 0 mm 3 mps 704 mmHg 30%
    11:00 +36°C° 0 mm 2 mps 704 mmHg 29%
    12:00 +37°C° 0 mm 2 mps 703 mmHg 27%
    13:00 +38°C° 0 mm 2 mps 702 mmHg 25%
    14:00 +39°C° 0 mm 2 mps 701 mmHg 24%
    15:00 +39°C° 0 mm 2 mps 701 mmHg 23%
    16:00 +40°C° 0 mm 2 mps 700 mmHg 22%
    17:00 +39°C° 0 mm 2 mps 700 mmHg 23%
    18:00 +38°C° 0 mm 2 mps 700 mmHg 24%
    19:00 +38°C° 0 mm 2 mps 701 mmHg 25%
    20:00 +37°C° 0.1 mm 2 mps 701 mmHg 26%
    21:00 +36°C° 0.1 mm 2 mps 701 mmHg 28%
    22:00 +35°C° 0.1 mm 2 mps 701 mmHg 29%
    23:00 +35°C° 0.1 mm 2 mps 700 mmHg 31%

    16 December, Saturday

    Time Temperature Precipitation Wind Pressure Humidity
    00:00 +34°C° 0.1 mm 2 mps 700 mmHg 33%
    01:00 +34°C° 0.1 mm 2 mps 699 mmHg 35%
    02:00 +32°C° 0 mm 2 mps 699 mmHg 36%
    03:00 +32°C° 0 mm 2 mps 699 mmHg 38%
    04:00 +31°C° 0 mm 2 mps 698 mmHg 40%
    05:00 +34°C° 0 mm 2 mps 699 mmHg 35%
    06:00 +35°C° 0 mm 2 mps 699 mmHg 30%
    07:00 +36°C° 0 mm 2 mps 699 mmHg 25%
    08:00 +38°C° 0 mm 2 mps 699 mmHg 22%
    09:00 +39°C° 0 mm 2 mps 699 mmHg 19%
    10:00 +40°C° 0 mm 2 mps 699 mmHg 15%
    11:00 +42°C° 0 mm 3 mps 699 mmHg 14%
    12:00 +44°C° 0 mm 3 mps 698 mmHg 12%
    13:00 +45°C° 0 mm 4 mps 698 mmHg 10%
    14:00 +46°C° 0 mm 5 mps 698 mmHg 11%
    15:00 +46°C° 0 mm 6 mps 698 mmHg 11%
    16:00 +46°C° 0 mm 7 mps 698 mmHg 11%
    17:00 +44°C° 0 mm 7 mps 699 mmHg 15%
    18:00 +41°C° 0 mm 8 mps 700 mmHg 19%
    19:00 +40°C° 0 mm 9 mps 700 mmHg 22%
    20:00 +38°C° 0.2 mm 9 mps 702 mmHg 22%
    21:00 +37°C° 0.2 mm 9 mps 703 mmHg 22%
    22:00 +35°C° 0.2 mm 9 mps 705 mmHg 22%
    23:00 +32°C° 0 mm 9 mps 705 mmHg 20%

    17 December, Sunday

    Time Temperature Precipitation Wind Pressure Humidity
    00:00 +29°C° 0 mm 9 mps 706 mmHg 18%
    01:00 +26°C° 0 mm 9 mps 706 mmHg 16%
    02:00 +24°C° 0 mm 8 mps 707 mmHg 17%
    03:00 +23°C° 0 mm 8 mps 707 mmHg 17%
    04:00 +21°C° 0 mm 7 mps 708 mmHg 18%
    05:00 +22°C° 0 mm 6 mps 708 mmHg 17%
    06:00 +22°C° 0 mm 5 mps 709 mmHg 17%
    07:00 +22°C° 0 mm 5 mps 709 mmHg 17%
    08:00 +23°C° 0 mm 4 mps 709 mmHg 16%
    09:00 +25°C° 0 mm 3 mps 708 mmHg 15%
    10:00 +27°C° 0 mm 3 mps 708 mmHg 14%
    11:00 +28°C° 0 mm 2 mps 707 mmHg 14%
    12:00 +29°C° 0 mm 2 mps 706 mmHg 14%
    13:00 +30°C° 0 mm 2 mps 706 mmHg 14%
    14:00 +31°C° 0 mm 2 mps 705 mmHg 13%
    15:00 +32°C° 0 mm 2 mps 705 mmHg 13%
    16:00 +32°C° 0 mm 2 mps 705 mmHg 13%
    17:00 +32°C° 0 mm 2 mps 705 mmHg 14%
    18:00 +31°C° 0 mm 2 mps 705 mmHg 15%
    19:00 +30°C° 0 mm 3 mps 706 mmHg 16%
    20:00 +30°C° 0 mm 2 mps 706 mmHg 18%
    21:00 +29°C° 0 mm 2 mps 706 mmHg 19%
    22:00 +28°C° 0 mm 1 mps 706 mmHg 20%
    23:00 +27°C° 0 mm 2 mps 706 mmHg 23%
    Show more